Lid_Strength_Index
7 11 13 11 10 11 12 13 12 11 11 10 10 13 11 10 9 10 10 10 10 10 11 11 10 10 9 8 8 8 5 5 7 9 10 11 11 10 9 8 8 8 8 8
10 13 9 9 9 11 12 15 14 12 12 11 12 12 13 11 10 10 10 11 10 11 11 11 10 10 9 9 10 10 9 7 8 9 10 10 10 9 9 9 9 9 8 9
11 10 8 9 11 12 12 15 15 14 13 12 12 14 13 13 12 11 10 10 11 11 12 12 12 11 10 11 11 11 11 10 10 10 10 9 9 9 10 10 10 10 10 10
10 8 10 11 12 11 14 11 12 13 14 17 13 19 13 12 13 12 12 12 12 13 13 13 13 12 12 12 11 11 11 11 11 10 9 9 9 11 11 11 11 11 11 11
10 10 11 12 11 10 12 10 11 12 14 15 16 17 14 13 14 13 12 12 12 13 13 14 13 13 12 12 12 12 11 12 10 9 9 10 10 11 12 11 12 12 11 11
9 7 8 10 9 9 9 11 11 12 14 19 16 16 16 14 12 12 12 12 12 13 13 13 13 12 12 12 12 12 12 12 11 11 11 11 11 12 12 12 12 12 11 11
11 10 8 8 11 9 10 14 19 20 20 20 14 16 14 10 10 11 12 12 12 13 13 14 14 13 12 12 12 12 12 13 13 12 12 12 12 12 12 12 12 11 11 11
15 16 10 8 9 12 12 13 17 21 21 19 15 19 14 11 11 9 11 11 12 13 13 13 13 13 13 13 13 13 13 14 13 13 13 13 13 13 12 12 11 11 11 11
14 14 9 8 8 9 12 15 10 15 16 17 17 14 11 13 12 11 11 12 12 13 13 13 13 13 13 14 14 14 14 14 14 14 13 13 13 13 13 12 11 11 11 12
11 15 11 9 8 9 10 9 16 15 21 20 18 16 13 14 13 12 12 12 12 12 13 13 13 13 13 14 14 14 13 14 13 13 13 13 13 13 13 12 13 12 12 12
8 12 13 10 12 12 12 13 13 13 15 18 19 16 11 11 11 12 12 11 12 12 12 13 13 12 13 13 13 14 13 14 14 13 13 13 14 13 13 13 13 13 13 13
8 12 15 13 10 9 10 12 12 16 18 15 15 15 14 14 11 10 11 11 11 12 12 13 13 13 13 13 13 13 13 13 13 13 14 14 14 13 14 13 14 13 13 13
9 13 17 15 13 10 12 11 11 12 13 16 17 15 13 13 12 11 12 11 12 13 13 13 13 13 13 14 14 13 13 13 13 13 14 14 14 14 13 13 13 13 14 14
8 12 14 16 14 12 13 12 12 12 16 16 15 13 13 13 12 11 12 12 12 13 13 14 14 14 14 14 13 13 13 13 13 14 14 14 14 14 13 13 14 14 14 14
10 14 13 12 12 12 12 12 12 13 13 15 13 13 11 12 12 11 11 12 12 13 13 13 14 14 14 14 14 14 13 13 13 14 14 13 14 14 13 13 14 14 14 14
9 14 13 14 12 13 14 12 12 12 12 12 12 12 11 11 10 11 12 12 12 13 13 13 13 13 14 14 13 13 13 14 13 13 14 14 14 14 13 13 14 14 14 14
11 12 14 16 13 13 16 13 12 11 10 11 13 10 12 13 12 12 12 12 12 12 13 13 13 13 13 13 13 13 13 13 13 13 13 14 14 14 14 13 14 14 14 14
13 13 14 15 14 19 13 13 12 11 10 10 10 10 10 12 12 11 10 11 11 12 12 12 12 11 11 12 12 13 13 13 13 14 14 14 14 14 14 14 14 14 14 14
11 12 15 16 16 14 14 14 13 11 12 10 10 11 12 12 12 12 10 10 10 11 11 11 11 11 11 12 12 13 14 14 13 13 13 13 14 14 14 14 14 14 14 15
13 14 13 17 18 18 14 12 12 12 14 10 9 10 12 11 11 9 10 9 9 10 10 11 11 11 11 12 13 13 13 14 14 13 13 13 13 13 13 13 14 14 15 15
16 16 16 16 16 14 13 13 11 15 13 11 10 10 11 11 10 10 10 9 9 9 10 10 10 10 10 12 12 13 13 13 12 12 13 13 13 14 14 14 14 15 15 16
15 15 16 20 17 16 13 14 13 11 12 12 11 10 11 11 11 12 10 10 10 11 10 10 10 11 12 12 12 13 13 12 13 13 14 14 14 15 15 15 15 16 17 18
17 15 14 15 13 13 13 12 12 12 12 12 11 10 10 10 11 11 11 10 10 10 10 11 10 12 12 13 13 13 12 13 13 14 15 15 15 15 15 16 17 17 18 18
17 15 15 15 13 13 12 12 12 11 11 11 11 10 10 10 10 11 11 11 11 11 11 12 12 12 12 13 14 13 13 13 15 15 15 15 16 16 17 17 17 17 17 18
14 14 15 15 13 13 12 12 10 11 11 11 11 11 10 10 11 11 11 12 11 12 12 12 13 13 12 13 13 13 15 15 15 15 15 15 15 17 16 17 17 18 17 17
15 15 15 14 12 12 11 12 11 11 11 11 11 12 12 11 11 11 12 11 12 12 13 14 14 14 13 14 14 14 15 16 15 15 15 15 16 16 17 17 17 17 16 17